When you browse on this site, cookies collect data to enhance your experience and personalize the content and advertising you see.
Visit our Privacy Policy to learn more. By continuing to use the site, you agree to this use of cookies and data.
  • In Austria
  • List of Countries
  • For 7 days
  • Water Temperature
  • Satellite Maps
  • Weather Map
  • News
  • Weather Widgets
  • user-avatar
    Login

    Hourly Weather Gold Coast

    Today, 21 May, Tuesday

    Time Temperature Precipitation Wind Pressure Humidity
    00:00 +18°C° 0.1 mm 2 mps 765 mmHg 93%
    01:00 +19°C° 0.1 mm 1 mps 765 mmHg 93%
    02:00 +19°C° 0.2 mm 1 mps 765 mmHg 93%
    03:00 +19°C° 0.2 mm 1 mps 765 mmHg 94%
    04:00 +19°C° 0 mm 1 mps 765 mmHg 94%
    05:00 +19°C° 0.3 mm 1 mps 765 mmHg 94%
    06:00 +19°C° 0.3 mm 1 mps 765 mmHg 93%
    07:00 +18°C° 0.3 mm 2 mps 765 mmHg 93%
    08:00 +19°C° 0.2 mm 2 mps 766 mmHg 90%
    09:00 +20°C° 0.2 mm 2 mps 766 mmHg 87%
    10:00 +21°C° 0 mm 2 mps 766 mmHg 81%
    11:00 +23°C° 0.1 mm 2 mps 765 mmHg 77%
    12:00 +23°C° 0.1 mm 2 mps 765 mmHg 73%
    13:00 +24°C° 0.1 mm 2 mps 765 mmHg 70%
    14:00 +24°C° 0 mm 2 mps 764 mmHg 69%
    15:00 +24°C° 0 mm 2 mps 764 mmHg 68%
    16:00 +23°C° 0 mm 2 mps 764 mmHg 65%
    17:00 +21°C° 0 mm 2 mps 764 mmHg 70%
    18:00 +20°C° 0 mm 2 mps 765 mmHg 74%
    19:00 +18°C° 0 mm 2 mps 765 mmHg 79%
    20:00 +18°C° 0 mm 2 mps 765 mmHg 80%
    21:00 +18°C° 0 mm 2 mps 765 mmHg 81%
    22:00 +18°C° 0 mm 2 mps 766 mmHg 82%
    23:00 +17°C° 0 mm 2 mps 766 mmHg 83%

    Tomorrow, 22 May, Wednesday

    Time Temperature Precipitation Wind Pressure Humidity
    00:00 +17°C° 0 mm 2 mps 766 mmHg 83%
    01:00 +18°C° 0 mm 1 mps 766 mmHg 84%
    02:00 +17°C° 0 mm 2 mps 766 mmHg 85%
    03:00 +17°C° 0 mm 2 mps 766 mmHg 86%
    04:00 +16°C° 0 mm 2 mps 766 mmHg 86%
    05:00 +17°C° 0 mm 2 mps 766 mmHg 86%
    06:00 +17°C° 0 mm 2 mps 766 mmHg 86%
    07:00 +17°C° 0 mm 2 mps 766 mmHg 86%
    08:00 +19°C° 0 mm 2 mps 766 mmHg 78%
    09:00 +21°C° 0 mm 3 mps 766 mmHg 70%
    10:00 +24°C° 0 mm 3 mps 767 mmHg 62%
    11:00 +25°C° 0 mm 3 mps 766 mmHg 60%
    12:00 +25°C° 0 mm 3 mps 765 mmHg 58%
    13:00 +25°C° 0 mm 3 mps 765 mmHg 56%
    14:00 +25°C° 0 mm 4 mps 765 mmHg 60%
    15:00 +23°C° 0 mm 4 mps 765 mmHg 64%
    16:00 +22°C° 0 mm 4 mps 765 mmHg 68%
    17:00 +21°C° 0 mm 4 mps 765 mmHg 73%
    18:00 +20°C° 0 mm 3 mps 765 mmHg 77%
    19:00 +19°C° 0 mm 3 mps 766 mmHg 81%
    20:00 +18°C° 0 mm 3 mps 766 mmHg 82%
    21:00 +18°C° 0 mm 3 mps 766 mmHg 82%
    22:00 +18°C° 0 mm 3 mps 766 mmHg 83%
    23:00 +17°C° 0 mm 3 mps 766 mmHg 83%

    Day after tomorrow, 23 May, Thursday

    Time Temperature Precipitation Wind Pressure Humidity
    00:00 +17°C° 0 mm 3 mps 766 mmHg 84%
    01:00 +17°C° 0 mm 2 mps 766 mmHg 84%
    02:00 +17°C° 0 mm 3 mps 766 mmHg 85%
    03:00 +16°C° 0 mm 3 mps 765 mmHg 86%
    04:00 +16°C° 0 mm 3 mps 765 mmHg 87%
    05:00 +16°C° 0 mm 3 mps 765 mmHg 88%
    06:00 +16°C° 0 mm 3 mps 766 mmHg 89%
    07:00 +16°C° 0 mm 3 mps 766 mmHg 89%
    08:00 +18°C° 0 mm 3 mps 766 mmHg 80%
    09:00 +20°C° 0 mm 4 mps 766 mmHg 71%
    10:00 +22°C° 0 mm 4 mps 766 mmHg 62%
    11:00 +22°C° 0.1 mm 4 mps 766 mmHg 62%
    12:00 +22°C° 0.1 mm 4 mps 765 mmHg 63%
    13:00 +22°C° 0.1 mm 3 mps 764 mmHg 64%
    14:00 +22°C° 0 mm 3 mps 764 mmHg 65%
    15:00 +21°C° 0 mm 3 mps 764 mmHg 66%
    16:00 +21°C° 0 mm 3 mps 764 mmHg 67%
    17:00 +20°C° 0 mm 3 mps 764 mmHg 70%
    18:00 +19°C° 0 mm 3 mps 765 mmHg 73%
    19:00 +18°C° 0 mm 3 mps 765 mmHg 76%
    20:00 +18°C° 0 mm 3 mps 765 mmHg 77%
    21:00 +17°C° 0 mm 3 mps 765 mmHg 78%
    22:00 +17°C° 0 mm 3 mps 765 mmHg 79%
    23:00 +17°C° 0 mm 3 mps 765 mmHg 81%

    24 May, Friday

    Time Temperature Precipitation Wind Pressure Humidity
    00:00 +16°C° 0 mm 3 mps 765 mmHg 83%
    01:00 +16°C° 0 mm 3 mps 764 mmHg 85%
    02:00 +16°C° 0 mm 3 mps 764 mmHg 85%
    03:00 +16°C° 0 mm 3 mps 764 mmHg 86%
    04:00 +14°C° 0 mm 3 mps 763 mmHg 87%
    05:00 +14°C° 0 mm 3 mps 764 mmHg 86%
    06:00 +14°C° 0 mm 3 mps 764 mmHg 85%
    07:00 +14°C° 0 mm 3 mps 764 mmHg 85%
    08:00 +18°C° 0 mm 3 mps 764 mmHg 77%
    09:00 +20°C° 0 mm 3 mps 764 mmHg 69%
    10:00 +22°C° 0 mm 3 mps 764 mmHg 61%
    11:00 +24°C° 0 mm 3 mps 764 mmHg 59%
    12:00 +25°C° 0 mm 3 mps 763 mmHg 57%
    13:00 +25°C° 0 mm 3 mps 762 mmHg 55%
    14:00 +24°C° 0 mm 3 mps 762 mmHg 60%
    15:00 +24°C° 0 mm 3 mps 762 mmHg 66%
    16:00 +22°C° 0 mm 3 mps 761 mmHg 72%
    17:00 +21°C° 0 mm 3 mps 762 mmHg 77%
    18:00 +19°C° 0 mm 2 mps 762 mmHg 83%
    19:00 +18°C° 0 mm 2 mps 763 mmHg 88%
    20:00 +18°C° 0 mm 2 mps 763 mmHg 89%
    21:00 +18°C° 0 mm 1 mps 763 mmHg 90%
    22:00 +18°C° 0 mm 1 mps 763 mmHg 91%
    23:00 +18°C° 0 mm 1 mps 763 mmHg 92%

    25 May, Saturday

    Time Temperature Precipitation Wind Pressure Humidity
    00:00 +17°C° 0 mm 2 mps 763 mmHg 93%
    01:00 +16°C° 0 mm 2 mps 762 mmHg 94%
    02:00 +16°C° 0 mm 2 mps 762 mmHg 94%
    03:00 +16°C° 0 mm 2 mps 762 mmHg 94%
    04:00 +16°C° 0 mm 2 mps 762 mmHg 94%
    05:00 +16°C° 0 mm 2 mps 762 mmHg 93%
    06:00 +16°C° 0 mm 2 mps 762 mmHg 93%
    07:00 +16°C° 0 mm 2 mps 762 mmHg 92%
    08:00 +18°C° 0 mm 2 mps 762 mmHg 83%
    09:00 +22°C° 0 mm 1 mps 762 mmHg 73%
    10:00 +24°C° 0 mm 1 mps 762 mmHg 64%
    11:00 +25°C° 0 mm 1 mps 762 mmHg 60%
    12:00 +26°C° 0 mm 1 mps 761 mmHg 56%
    13:00 +26°C° 0 mm 1 mps 760 mmHg 52%
    14:00 +25°C° 0 mm 2 mps 760 mmHg 58%
    15:00 +24°C° 0 mm 2 mps 760 mmHg 64%
    16:00 +23°C° 0 mm 2 mps 760 mmHg 70%
    17:00 +21°C° 0 mm 2 mps 760 mmHg 76%
    18:00 +20°C° 0 mm 2 mps 760 mmHg 81%
    19:00 +19°C° 0 mm 1 mps 761 mmHg 87%
    20:00 +19°C° 0 mm 1 mps 761 mmHg 88%
    21:00 +19°C° 0 mm 1 mps 761 mmHg 89%
    22:00 +19°C° 0 mm 1 mps 761 mmHg 89%
    23:00 +18°C° 0 mm 1 mps 761 mmHg 90%

    26 May, Sunday

    Time Temperature Precipitation Wind Pressure Humidity
    00:00 +18°C° 0 mm 1 mps 760 mmHg 91%
    01:00 +17°C° 0 mm 2 mps 760 mmHg 92%
    02:00 +17°C° 0 mm 2 mps 760 mmHg 92%
    03:00 +16°C° 0 mm 2 mps 760 mmHg 93%
    04:00 +16°C° 0 mm 2 mps 759 mmHg 93%
    05:00 +16°C° 0 mm 2 mps 760 mmHg 92%
    06:00 +16°C° 0 mm 2 mps 760 mmHg 91%
    07:00 +16°C° 0 mm 2 mps 760 mmHg 90%
    08:00 +18°C° 0 mm 2 mps 760 mmHg 78%
    09:00 +20°C° 0 mm 3 mps 760 mmHg 66%
    10:00 +24°C° 0 mm 3 mps 760 mmHg 54%
    11:00 +25°C° 0 mm 3 mps 759 mmHg 47%
    12:00 +26°C° 0 mm 2 mps 758 mmHg 40%
    13:00 +27°C° 0 mm 2 mps 757 mmHg 34%
    14:00 +27°C° 0 mm 2 mps 757 mmHg 37%
    15:00 +26°C° 0 mm 2 mps 757 mmHg 41%
    16:00 +25°C° 0 mm 2 mps 757 mmHg 45%
    17:00 +24°C° 0 mm 2 mps 757 mmHg 50%
    18:00 +21°C° 0 mm 2 mps 758 mmHg 55%
    19:00 +19°C° 0 mm 2 mps 758 mmHg 60%
    20:00 +18°C° 0 mm 2 mps 758 mmHg 59%
    21:00 +18°C° 0 mm 2 mps 758 mmHg 58%
    22:00 +18°C° 0 mm 2 mps 758 mmHg 57%
    23:00 +17°C° 0 mm 2 mps 758 mmHg 57%
    Show more